Погода в Красной Горке

Россия / Нижегородская область     55°23′03″N   46°06′31″E
темп.,
°C
ветер,
м/с
пор.,
м/с
влажн.,
%
обл.,
%
осадки,
мм/ч
давл.,
гПа
погр.,
м
14 августа, вс
вс1400:00+16всв227814 0.0 102214
03:00+15св118276 0.0 102211
06:00+17всв1176100 0.0 102352
09:00+22всв2353100 0.0 1022496
12:00+25в3443100 0.0 10221259
15:00+26в444289 0.0 10221688
18:00+23вюв356196 0.0 1021135
21:00+18юв226998 0.0 102226
15 августа, пн
пн1500:00+16юв2270100 0.0 102212
03:00+15юв117275 0.0 102311
06:00+17ююв116842 0.0 102423
09:00+22вюв225072 0.0 1024437
12:00+25всв11465 0.0 1024874
15:00+26ссв22440 0.0 10231844
18:00+24св35611 0.0 1023144
21:00+18всв22750 0.0 102414
16 августа, вт
вт1600:00+16всв22800 0.0 102423
03:00+15в22770 0.0 102520
06:00+16всв25790 0.0 1025129
09:00+22в35542 0.0 1025565
12:00+25в34415 0.0 10251562
15:00+26в4438100 0.0 10241781
18:00+23всв365742 0.0 1023184
21:00+18в346753 0.0 102461
17 августа, ср
ср1700:00+16вюв34745 0.0 102459
03:00+15вюв237513 0.0 102336
06:00+16в267377 0.0 1023142
09:00+22вюв45505 0.0 1023487
12:00+26в444093 0.0 10221573
15:00+27в443826 0.0 10212005
18:00+23всв36550 0.0 1021182
21:00+18в35650 0.0 102160
18 августа, чт
чт1800:00+16в22660 0.0 102225
03:00+14в23705 0.0 102231
06:00+15всв26700 0.0 1023133
09:00+23в47500 0.0 1023570
12:00+27в67380 0.0 10221688
15:00+27в67400 0.0 10222049
18:00+24в47550 0.0 1022272
21:00+19в310745 0.0 1023187